Wind_Speed
13 14 14 15 15 14 13 12 11 10 10 8 7 7 6 6 5 4 3 2 2 1 1 0 1 2 2 2 3 4 5 5 6 6 7 7 7 7 7 7 8 9 9
13 13 13 14 14 14 14 13 12 11 10 9 7 6 6 5 5 4 3 2 1 0 1 1 2 2 3 3 4 5 6 7 7 7 8 8 8 8 8 8 9 9 9
13 13 13 13 14 14 13 12 12 11 11 10 8 7 6 5 4 4 3 2 1 1 1 2 2 3 4 4 5 5 6 7 7 8 8 9 9 9 9 10 10 10 10
12 13 13 13 13 13 13 12 12 12 11 10 9 8 6 5 5 4 3 2 2 2 2 3 3 4 4 5 6 6 7 7 8 8 9 9 10 10 11 11 11 11 11
11 11 12 12 12 12 12 12 12 12 11 10 10 9 7 6 5 5 4 3 3 3 4 4 4 5 6 6 7 7 8 8 9 9 10 10 10 11 12 12 12 11 12
10 10 11 12 12 12 12 12 12 12 11 10 9 10 8 6 5 4 4 4 4 4 5 5 5 6 7 7 8 8 9 9 10 10 11 11 11 11 11 12 12 12 13
9 9 10 11 11 11 11 12 12 12 12 11 10 9 9 7 6 5 5 5 5 5 5 5 6 7 7 8 8 8 8 8 9 9 10 11 11 12 12 12 12 13 13
9 8 9 10 10 10 11 11 12 12 12 11 10 10 9 8 7 5 5 5 5 5 5 6 6 7 7 7 8 8 8 8 9 9 10 11 12 12 12 12 13 13 13
9 9 8 9 9 9 10 11 11 12 11 12 11 10 10 9 8 7 6 6 6 6 6 6 6 7 8 9 9 9 9 9 10 10 11 12 12 12 12 13 13 14 14
8 8 8 8 7 8 9 10 11 11 12 12 11 11 12 11 9 8 7 7 7 7 7 7 7 8 9 10 10 9 10 10 11 11 12 12 12 12 13 13 14 14 15
9 9 9 9 8 8 9 10 10 11 12 12 12 12 12 12 11 10 9 8 7 7 7 7 8 8 9 9 9 9 10 11 11 12 12 12 12 13 13 13 14 15 15
10 10 10 10 9 9 9 10 11 11 11 12 12 12 13 13 12 11 10 9 9 9 8 8 8 8 9 9 9 9 10 11 11 12 12 12 12 13 13 14 14 15 15
12 11 11 11 10 10 10 11 12 12 11 11 12 13 13 13 14 13 12 11 10 9 9 9 9 9 9 9 10 10 11 11 12 13 13 13 13 14 14 14 15 15 16
14 13 12 12 11 11 12 11 12 13 12 12 13 13 13 14 14 14 13 12 11 11 10 10 9 9 10 10 11 11 12 12 12 13 13 14 14 14 14 15 16 16 17
15 14 13 13 13 12 12 12 13 13 12 12 14 14 14 14 14 14 13 12 11 11 11 10 10 10 11 11 12 12 12 12 13 13 14 14 14 15 15 16 16 17 17
16 15 14 13 14 12 13 13 13 13 13 14 14 15 15 15 15 15 14 13 12 11 11 11 12 12 12 12 12 13 13 13 13 14 14 15 15 16 16 17 17 17 18
17 17 16 15 14 14 14 14 14 14 14 15 15 16 15 16 15 16 16 14 13 12 12 12 12 13 13 13 13 13 14 14 14 15 15 16 16 16 16 17 17 18 19
20 19 18 18 16 15 15 15 15 15 15 15 16 16 17 17 16 16 15 14 13 13 13 13 13 14 13 14 14 14 15 14 14 15 15 16 16 17 18 18 18 18 19
23 22 21 20 18 16 16 16 16 15 15 16 17 17 17 17 17 16 15 14 13 14 15 15 15 15 15 15 15 15 15 15 15 16 16 17 17 18 18 19 19 19 20
26 24 23 22 21 18 18 18 18 17 17 17 17 17 18 18 17 16 15 15 15 15 15 16 16 16 16 16 16 16 16 16 16 17 17 18 18 19 19 19 20 20 20
26 25 25 24 23 21 21 19 19 19 19 19 18 17 18 17 17 17 16 16 16 16 16 16 16 16 17 17 17 17 17 17 17 17 18 18 19 19 19 20 20 21 21
26 25 25 25 24 23 20 19 20 20 20 20 19 18 18 18 18 17 17 17 16 17 17 17 17 17 17 18 18 18 18 18 18 18 19 20 20 20 20 21 21 22 23
28 27 26 26 25 23 21 21 21 21 21 21 20 19 19 19 18 18 18 18 18 18 18 18 18 19 19 19 19 19 19 19 19 19 19 20 20 21 22 22 23 23 24
30 30 29 28 25 23 23 22 22 22 21 21 21 20 20 19 19 19 19 20 20 19 20 20 20 20 20 20 20 20 20 20 20 21 21 21 21 22 23 23 24 24 24
31 30 29 27 26 25 24 24 23 23 22 22 22 21 21 21 21 21 21 22 21 21 21 21 22 22 21 21 21 21 21 21 21 22 22 23 23 24 24 25 25 25 25
32 30 29 28 27 26 25 24 24 24 24 24 23 23 22 23 23 23 22 22 23 23 22 23 23 23 23 22 21 21 22 22 23 23 23 24 25 25 25 26 26 26 26
Wind_Direction
34 36 35 35 34 33 33 34 33 31 30 29 28 28 29 28 27 24 27 34 57 95 93 204 238 237 243 253 264 263 262 268 274 278 285 286 285 286 287 285 282 282 279
29 30 31 30 30 29 30 31 31 31 27 23 22 22 24 24 21 21 18 11 356 308 261 259 274 268 263 259 263 272 271 270 275 276 279 284 283 285 282 280 278 278 278
27 27 28 26 25 24 26 26 25 24 23 22 16 13 13 10 7 5 4 360 348 319 283 270 271 282 281 274 274 273 275 273 271 274 277 282 288 284 280 278 279 277 276
22 24 26 23 22 22 22 22 21 19 19 19 16 10 5 360 355 345 335 323 318 304 294 290 283 288 292 288 283 282 281 279 276 279 282 281 285 283 283 280 281 280 281
14 17 20 19 17 16 17 21 20 19 17 19 19 12 4 357 347 338 334 318 307 299 291 293 294 297 296 292 290 283 284 285 286 285 285 286 284 281 282 283 281 282 285
1 5 10 12 12 11 13 18 19 17 15 16 18 17 11 3 352 336 331 324 311 304 297 290 296 300 299 295 291 288 287 288 289 287 285 285 284 284 287 285 281 284 288
354 358 1 4 7 9 10 14 15 14 13 14 15 13 10 2 352 346 337 330 321 312 302 292 293 298 301 299 294 293 290 290 292 292 289 288 284 284 286 288 287 288 289
343 348 351 356 0 5 6 8 10 9 10 13 11 9 4 2 359 349 336 329 322 320 312 303 299 300 303 302 298 296 290 289 291 291 293 294 291 285 286 287 289 292 292
326 333 341 347 353 358 0 3 4 3 7 10 10 9 4 1 359 351 336 324 317 313 312 309 304 303 303 301 300 297 293 294 298 297 295 295 295 292 290 289 290 291 290
325 326 333 339 348 351 354 357 0 2 1 2 6 6 5 2 355 347 337 326 315 307 304 306 306 303 302 301 300 297 296 296 298 299 299 299 296 295 294 294 291 290 288
325 326 332 333 339 343 343 345 347 351 353 356 359 1 2 3 359 349 337 328 319 313 311 312 311 307 306 305 303 300 298 299 300 301 302 302 301 299 296 294 293 291 289
318 321 320 322 327 333 335 336 338 341 345 350 353 355 356 355 353 350 346 339 330 327 322 319 313 306 304 305 305 307 305 304 303 304 304 303 304 303 300 299 298 294 291
310 312 312 313 313 321 325 325 330 334 336 342 347 349 350 349 348 345 342 341 337 336 334 328 320 315 310 307 306 305 303 304 305 305 303 302 303 303 302 301 299 297 294
304 307 308 310 306 312 316 318 323 330 330 331 337 340 341 342 345 348 345 340 335 333 333 331 328 325 320 316 311 306 306 305 304 305 305 304 305 306 303 301 300 299 298
294 298 300 304 305 305 306 308 316 323 327 327 331 332 333 334 336 339 338 336 330 326 328 330 329 326 321 319 316 312 311 308 307 308 307 307 307 307 306 304 303 302 301
286 292 293 295 299 298 299 301 309 317 320 321 323 326 327 329 328 329 329 327 328 329 327 328 324 321 320 322 320 316 316 312 311 311 311 310 308 308 308 307 305 303 302
282 289 288 289 292 295 296 294 300 307 313 317 320 323 326 327 326 327 326 327 323 323 324 325 323 321 318 318 317 315 313 312 310 310 312 313 311 312 312 311 309 306 304
280 285 285 285 285 286 288 289 293 300 306 312 316 319 323 325 323 322 322 322 322 322 324 325 322 321 318 317 316 314 312 310 310 311 313 313 313 313 313 311 310 308 306
277 281 282 284 280 279 282 283 287 292 299 306 310 312 316 319 321 319 317 316 317 318 318 321 321 319 317 316 314 312 311 311 311 313 315 314 313 313 313 311 311 311 310
273 276 277 279 279 275 277 280 284 288 295 301 306 308 312 314 315 314 314 313 313 314 314 317 319 318 317 317 316 313 312 311 312 313 314 314 314 314 314 312 311 311 311
269 274 276 277 277 275 274 276 281 284 290 296 300 304 307 310 311 311 311 310 309 313 313 314 316 318 318 317 316 314 312 311 311 311 312 313 313 314 314 313 312 312 312
269 274 274 273 275 277 274 273 275 279 285 289 292 296 301 305 306 306 307 310 312 312 313 312 313 315 316 316 315 314 312 311 311 310 311 312 312 313 313 313 312 312 312
266 269 271 271 273 273 273 271 273 277 282 286 288 291 298 302 304 305 306 308 310 311 311 312 311 311 312 313 313 312 311 312 311 311 311 312 312 313 314 313 312 311 310
265 268 269 270 270 271 271 272 274 275 279 284 286 291 295 298 299 301 304 305 307 308 309 309 310 309 309 310 311 312 311 311 311 310 311 311 312 313 313 313 312 312 311
261 263 263 265 267 270 270 271 274 275 278 283 286 288 291 294 296 298 301 302 303 304 305 306 307 308 307 307 308 309 309 310 309 309 309 311 312 313 312 311 312 310 309
261 262 262 262 263 264 266 268 272 274 279 281 283 286 289 291 293 295 296 298 299 300 301 302 304 306 307 306 306 307 308 308 308 308 308 309 310 310 310 309 308 308 308
Height
5930 5928 5925 5923 5921 5919 5917 5916 5914 5912 5911 5909 5908 5907 5906 5905 5904 5903 5903 5902 5901 5901 5901 5901 5900 5900 5900 5900 5900 5900 5900 5899 5899 5899 5898 5897 5896 5895 5894 5893 5892 5892 5891
5932 5929 5927 5924 5923 5920 5918 5917 5915 5913 5912 5910 5909 5907 5906 5905 5904 5903 5902 5902 5901 5901 5901 5900 5900 5900 5900 5900 5899 5899 5899 5898 5898 5897 5896 5895 5895 5894 5893 5891 5890 5889 5888
5933 5931 5928 5926 5924 5921 5919 5918 5916 5914 5912 5910 5909 5907 5906 5905 5904 5903 5902 5902 5901 5900 5900 5900 5900 5899 5899 5899 5898 5898 5897 5896 5896 5895 5894 5893 5893 5892 5891 5889 5888 5887 5886
5933 5931 5929 5927 5925 5923 5921 5918 5916 5914 5912 5910 5909 5907 5906 5905 5904 5903 5902 5901 5900 5900 5900 5899 5899 5898 5898 5897 5897 5896 5895 5894 5894 5893 5892 5892 5890 5889 5888 5887 5886 5885 5884
5934 5932 5930 5928 5926 5924 5921 5919 5917 5915 5913 5911 5909 5907 5906 5904 5903 5902 5901 5900 5900 5899 5898 5898 5897 5897 5896 5896 5895 5894 5893 5892 5892 5891 5890 5889 5888 5887 5885 5884 5883 5882 5881
5934 5932 5930 5928 5926 5924 5922 5919 5917 5915 5913 5911 5909 5907 5905 5904 5903 5901 5900 5899 5899 5898 5897 5896 5896 5895 5894 5894 5893 5892 5891 5890 5889 5888 5887 5886 5885 5884 5883 5881 5880 5879 5877
5933 5932 5930 5928 5926 5924 5922 5920 5917 5915 5913 5911 5909 5907 5905 5903 5901 5900 5899 5898 5897 5896 5895 5894 5894 5893 5892 5892 5891 5889 5888 5887 5886 5885 5884 5883 5882 5880 5879 5878 5877 5875 5874
5933 5932 5930 5928 5926 5924 5922 5920 5917 5915 5913 5911 5909 5907 5905 5902 5900 5899 5898 5897 5896 5894 5893 5893 5892 5891 5890 5889 5888 5887 5886 5885 5883 5882 5881 5880 5878 5877 5876 5875 5873 5872 5871
5932 5931 5929 5927 5925 5923 5922 5919 5917 5915 5913 5911 5909 5906 5904 5901 5899 5897 5896 5895 5894 5893 5892 5891 5890 5888 5887 5886 5885 5884 5883 5882 5881 5879 5878 5877 5875 5873 5872 5871 5870 5869 5867
5930 5929 5927 5926 5925 5923 5922 5920 5918 5915 5914 5911 5909 5906 5904 5901 5899 5896 5895 5893 5892 5890 5889 5888 5887 5886 5885 5884 5883 5881 5880 5879 5878 5876 5875 5873 5872 5870 5869 5867 5866 5864 5863
5928 5927 5926 5925 5924 5923 5921 5920 5918 5915 5913 5911 5908 5905 5903 5901 5898 5896 5894 5892 5890 5888 5887 5886 5885 5884 5883 5881 5880 5879 5877 5876 5875 5873 5871 5870 5868 5866 5865 5863 5862 5860 5858
5927 5926 5925 5924 5923 5922 5920 5919 5917 5915 5912 5909 5907 5905 5902 5900 5897 5895 5893 5891 5889 5887 5885 5884 5883 5882 5880 5879 5878 5876 5875 5873 5871 5870 5868 5866 5865 5863 5861 5859 5857 5855 5854
5925 5924 5923 5922 5921 5920 5919 5917 5915 5913 5911 5908 5906 5904 5901 5899 5896 5893 5891 5889 5887 5886 5884 5882 5881 5879 5878 5876 5875 5873 5872 5870 5868 5866 5865 5863 5861 5859 5857 5855 5853 5851 5849
5922 5921 5921 5920 5918 5917 5917 5915 5913 5911 5909 5907 5904 5902 5900 5897 5895 5892 5890 5888 5886 5884 5882 5880 5879 5877 5875 5874 5872 5870 5868 5866 5865 5863 5861 5859 5857 5855 5853 5851 5849 5847 5845
5918 5918 5918 5917 5916 5915 5914 5912 5911 5909 5907 5905 5902 5900 5898 5895 5893 5890 5888 5886 5884 5882 5880 5878 5876 5875 5873 5871 5869 5867 5865 5863 5861 5859 5857 5855 5853 5851 5849 5847 5844 5842 5840
5914 5914 5914 5914 5913 5912 5911 5909 5908 5906 5904 5902 5900 5897 5895 5893 5890 5888 5885 5883 5881 5879 5878 5876 5874 5872 5870 5868 5866 5864 5862 5859 5857 5856 5853 5851 5849 5847 5844 5842 5840 5838 5836
5910 5911 5910 5910 5909 5908 5908 5906 5905 5903 5901 5900 5897 5895 5892 5890 5887 5885 5882 5880 5878 5876 5875 5873 5871 5869 5867 5865 5863 5860 5858 5856 5854 5852 5850 5847 5845 5843 5840 5838 5836 5833 5831
5906 5906 5906 5905 5905 5905 5904 5903 5901 5900 5898 5896 5895 5892 5889 5887 5884 5882 5880 5878 5876 5874 5872 5870 5868 5866 5864 5862 5859 5857 5855 5852 5850 5848 5846 5844 5841 5839 5836 5834 5831 5829 5826
5901 5901 5901 5900 5900 5900 5899 5898 5897 5895 5894 5893 5891 5889 5886 5884 5881 5879 5877 5875 5873 5871 5869 5867 5864 5862 5860 5858 5856 5853 5851 5849 5846 5844 5842 5840 5837 5835 5832 5829 5827 5824 5822
5895 5896 5895 5895 5893 5893 5893 5893 5892 5891 5890 5888 5887 5885 5883 5880 5878 5875 5873 5871 5869 5867 5865 5863 5861 5859 5857 5854 5852 5849 5847 5845 5842 5840 5838 5835 5833 5830 5827 5825 5822 5819 5817
5889 5890 5889 5889 5887 5887 5886 5887 5887 5886 5885 5883 5882 5880 5878 5876 5874 5871 5870 5868 5866 5864 5861 5859 5857 5855 5853 5850 5848 5845 5843 5840 5838 5836 5833 5831 5828 5825 5822 5820 5817 5814 5811
5883 5883 5883 5883 5881 5880 5879 5881 5881 5880 5879 5878 5877 5875 5874 5872 5870 5867 5866 5864 5862 5860 5858 5856 5853 5851 5849 5846 5844 5841 5839 5836 5834 5831 5828 5826 5823 5820 5817 5814 5811 5809 5806
5876 5876 5876 5876 5875 5875 5875 5875 5875 5874 5873 5872 5871 5870 5869 5867 5865 5863 5861 5859 5857 5856 5853 5851 5849 5847 5844 5842 5839 5836 5834 5831 5829 5826 5823 5820 5817 5815 5812 5809 5805 5802 5800
5868 5869 5869 5869 5868 5868 5869 5869 5868 5868 5867 5866 5865 5864 5863 5862 5860 5858 5857 5855 5853 5851 5848 5846 5844 5841 5839 5836 5834 5831 5828 5826 5823 5821 5818 5815 5812 5809 5806 5802 5799 5796 5793
5860 5860 5861 5862 5862 5862 5862 5862 5862 5861 5861 5860 5859 5858 5857 5856 5855 5853 5851 5849 5847 5845 5843 5841 5838 5836 5833 5830 5828 5825 5823 5820 5817 5815 5812 5809 5806 5803 5799 5796 5793 5790 5786
5852 5853 5853 5854 5854 5855 5855 5855 5855 5855 5855 5854 5853 5852 5851 5850 5849 5847 5846 5844 5842 5840 5837 5835 5833 5830 5827 5824 5822 5819 5817 5814 5811 5808 5805 5802 5799 5796 5793 5789 5786 5783 5779